Zurück zum Katalog

KUIPER-00178

AktivKommunikationLEO
NORAD 67767·PAYLOAD·🇺🇸 United States

Gestartet Feb 12, 2026 von Guiana Space Centre

Loading…

Nächste Überflüge (nächste 24 Stunden)

TLE

AktuellSource: CelesTrak SupGP

Epoche: Sep 14, 2026, 15:29 UTC

1 67767C 26030D   26257.64559028 -.00002435  00000+0 -31871-3 0  2570
2 67767  51.8986  97.5458 0000710 103.5589 137.7052 14.79933392    15

Verfolge KUIPER-00178 in Echtzeit mit AllMySat

Download on the App Store